Location: Kerb�bon
(47.7970°N, 3.3487°W)
Time: 11:28:33
(UTC+00:00)

NOSS 3-3 (A) - Pass Details

Date: 12 May 2021
Orbit: 810 x 1402 km, 63.4° (Epoch: 06 June)

Event Time Altitude Azimuth Distance (km) Brightness Sun altitude
Rises 20:34:58 0° 208° (SSW) 3,376 6.7 -8.3°
Reaches altitude 10° 20:37:19 10° 206° (SSW) 2,486 6.0 -8.6°
Maximum altitude 20:43:00 67° 124° (SE) 1,001 3.9 -9.3°
Drops below altitude 10° 20:49:29 10° 44° (NE) 2,832 6.4 -10.1°
Sets 20:52:19 0° 42° (NE) 3,882 7.2 -10.5°
